FW9423 Weather Reports


time (UTC)temp
C
wind
direction
speed
KPH
gust
KPH
rain 1hr
cm
rain 24hr
cm
rain mn
cm
humidity
%
barometer
mb
20260506122043 17 360 12.9 24.1 0.00 0.00 0.00 62 1029.9
20260506121550 18 360 14.5 24.1 0.00 0.00 0.00 60 1029.8
20260506121043 18 360 9.7 17.7 0.00 0.00 0.00 55 1029.8
20260506120544 18 360 6.4 12.9 0.00 0.00 0.00 49 1029.7
20260506120055 18 360 4.8 9.7 0.00 0.00 0.00 49 1029.6
20260506115542 18 360 4.8 9.7 0.00 0.00 0.00 49 1029.5
20260506115041 18 360 4.8 9.7 0.00 0.00 0.00 49 1029.6
20260506114549 18 360 4.8 9.7 0.00 0.00 0.00 48 1029.5
20260506114041 18 360 4.8 12.9 0.00 0.00 0.00 48 1029.5
20260506113539 18 360 6.4 17.7 0.00 0.00 0.00 48 1029.5
20260506113049 18 360 8.0 20.9 0.00 0.00 0.00 48 1029.4
20260506112540 18 360 4.8 20.9 0.00 0.00 0.00 48 1029.4
20260506112326 18 360 9.7 20.9 0.00 0.00 0.00 48 1029.4
20260506111551 18 360 9.7 19.3 0.00 0.00 0.00 48 1029.4
20260506111046 18 360 9.7 19.3 0.00 0.00 0.00 48 1029.4
20260506110540 18 360 8.0 17.7 0.00 0.00 0.00 49 1029.3
20260506110054 18 360 8.0 17.7 0.00 0.00 0.00 49 1029.3
20260506105543 18 360 8.0 20.9 0.00 0.00 0.00 50 1029.3
20260506105041 18 360 9.7 20.9 0.00 0.00 0.00 51 1029.3
20260506104610 18 360 11.3 20.9 0.00 0.00 0.00 52 1029.3
20260506104310 18 360 8.0 19.3 0.00 0.00 0.00 53 1029.3
20260506103830 18 360 8.0 16.1 0.00 0.00 0.00 53 1029.2
20260506103050 18 360 6.4 16.1 0.00 0.00 0.00 54 1029.2
20260506102544 18 360 6.4 14.5 0.00 0.00 0.00 55 1029.2
20260506102043 18 360 6.4 14.5 0.00 0.00 0.00 55 1029.2
20260506101550 18 360 6.4 14.5 0.00 0.00 0.00 55 1029.1
20260506101042 18 360 6.4 14.5 0.00 0.00 0.00 55 1029.1
20260506100541 18 360 8.0 17.7 0.00 0.00 0.00 55 1029.0
20260506100046 18 360 11.3 17.7 0.00 0.00 0.00 55 1029.0
20260506095545 18 360 9.7 17.7 0.00 0.00 0.00 56 1029.0
20260506095040 18 360 8.0 19.3 0.00 0.00 0.00 56 1028.9
20260506094614 18 360 11.3 19.3 0.00 0.00 0.00 57 1028.8
20260506094042 18 360 9.7 20.9 0.00 0.00 0.00 57 1028.7
20260506093543 18 360 9.7 20.9 0.00 0.00 0.00 58 1028.7
20260506093056 18 360 12.9 20.9 0.00 0.00 0.00 58 1028.7
20260506092543 18 360 9.7 20.9 0.00 0.00 0.00 59 1028.6
20260506092043 18 360 8.0 20.9 0.00 0.00 0.00 58 1028.4
20260506091627 18 360 12.9 24.1 0.00 0.00 0.00 58 1028.4
20260506091042 18 360 12.9 24.1 0.00 0.00 0.00 57 1028.3
20260506090541 18 360 14.5 22.5 0.00 0.00 0.00 56 1028.3
20260506090055 18 360 11.3 22.5 0.00 0.00 0.00 55 1028.2
20260506085541 18 360 11.3 22.5 0.00 0.00 0.00 55 1028.1
20260506085045 18 360 14.5 22.5 0.00 0.00 0.00 54 1028.0
20260506084551 18 360 9.7 22.5 0.00 0.00 0.00 55 1027.9
20260506084042 18 360 11.3 22.5 0.00 0.00 0.00 54 1027.9
20260506083543 18 360 11.3 20.9 0.00 0.00 0.00 54 1027.8
20260506083056 19 360 11.3 19.3 0.00 0.00 0.00 53 1027.8
20260506082544 19 360 9.7 19.3 0.00 0.00 0.00 53 1027.7
20260506082041 19 360 11.3 19.3 0.00 0.00 0.00 52 1027.7
20260506081600 19 360 8.0 19.3 0.00 0.00 0.00 52 1027.7
20260506081043 19 360 9.7 20.9 0.00 0.00 0.00 52 1027.7
20260506080540 19 360 12.9 20.9 0.00 0.00 0.00 52 1027.6
20260506080106 19 360 11.3 20.9 0.00 0.00 0.00 52 1027.6
20260506073050 20 360 11.3 20.9 0.00 0.00 0.00 49 1027.2
20260506072542 20 360 11.3 20.9 0.00 0.00 0.00 49 1027.1
20260506072043 20 360 9.7 17.7 0.00 0.00 0.00 49 1027.0
20260506071610 20 360 9.7 19.3 0.00 0.00 0.00 50 1027.1
20260506071041 20 360 11.3 19.3 0.00 0.00 0.00 50 1027.0
20260506070922 20 360 11.3 19.3 0.00 0.00 0.00 48 1027.0
20260506062044 20 360 12.9 22.5 0.00 0.00 0.00 48 1027.0
20260506061551 20 360 11.3 22.5 0.00 0.00 0.00 47 1026.9
20260506061042 21 360 6.4 20.9 0.00 0.00 0.00 46 1026.9
20260506060545 21 360 9.7 20.9 0.00 0.00 0.00 46 1026.8
20260506051042 20 360 6.4 17.7 0.00 0.00 0.00 50 1027.1
20260506050542 20 360 11.3 20.9 0.00 0.00 0.00 50 1027.2
20260506045043 20 360 8.0 19.3 0.00 0.00 0.00 46 1027.2
20260506044605 20 360 8.0 19.3 0.00 0.00 0.00 47 1027.2
20260506044047 20 360 9.7 19.3 0.00 0.00 0.00 46 1027.1
20260506043543 20 360 9.7 17.7 0.00 0.00 0.00 47 1027.2
20260506043057 20 360 6.4 19.3 0.00 0.00 0.00 48 1027.3
20260506042543 20 360 9.7 19.3 0.00 0.00 0.00 48 1027.3
20260506042043 20 360 6.4 17.7 0.00 0.00 0.00 50 1027.3
20260506041554 20 360 8.0 17.7 0.00 0.00 0.00 49 1027.5
20260506041042 20 360 8.0 17.7 0.00 0.00 0.00 49 1027.5
20260506040543 20 360 8.0 16.1 0.00 0.00 0.00 48 1027.6
20260506040056 21 114 8.0 16.1 0.00 0.00 0.00 46 1027.6
20260506035543 21 360 4.8 12.9 0.00 0.00 0.00 49 1027.6
20260506035043 20 360 6.4 16.1 0.00 0.00 0.00 51 1027.7
20260506034609 20 360 9.7 20.9 0.00 0.00 0.00 50 1027.8
20260506034042 20 360 8.0 20.9 0.00 0.00 0.00 51 1027.7
20260506033542 20 360 6.4 16.1 0.00 0.00 0.00 51 1027.8
20260506033058 20 360 4.8 16.1 0.00 0.00 0.00 52 1027.9
20260506032543 19 360 8.0 16.1 0.00 0.00 0.00 53 1028.0
20260506032043 18 360 6.4 16.1 0.00 0.00 0.00 54 1028.0
20260506031556 19 360 8.0 17.7 0.00 0.00 0.00 54 1028.3
20260506031046 18 360 6.4 17.7 0.00 0.00 0.00 54 1028.2
20260506030541 19 360 8.0 17.7 0.00 0.00 0.00 54 1028.3
20260506030049 18 360 9.7 17.7 0.00 0.00 0.00 54 1028.5
20260506025542 18 360 6.4 19.3 0.00 0.00 0.00 55 1028.6
20260506025043 18 360 6.4 20.9 0.00 0.00 0.00 55 1028.6
20260506024555 18 360 12.9 20.9 0.00 0.00 0.00 54 1028.7
20260506024045 18 360 9.7 19.3 0.00 0.00 0.00 54 1028.8
20260506023542 18 360 9.7 19.3 0.00 0.00 0.00 55 1028.9
20260506023055 19 360 11.3 20.9 0.00 0.00 0.00 55 1028.9
20260506022544 18 360 11.3 22.5 0.00 0.00 0.00 57 1028.9
20260506022040 18 360 9.7 22.5 0.00 0.00 0.00 57 1029.0
20260506021556 18 360 8.0 17.7 0.00 0.00 0.00 58 1028.9
20260506021040 18 360 6.4 20.9 0.00 0.00 0.00 59 1029.0
20260506020542 18 360 11.3 20.9 0.00 0.00 0.00 59 1029.2
20260506020051 18 360 9.7 20.9 0.00 0.00 0.00 58 1029.1
20260506015543 18 360 9.7 19.3 0.00 0.00 0.00 57 1029.2
20260506015043 18 360 11.3 19.3 0.00 0.00 0.00 58 1029.2
20260506014550 18 360 9.7 19.3 0.00 0.00 0.00 58 1029.2
20260506014046 18 360 11.3 19.3 0.00 0.00 0.00 58 1029.3
20260506013542 18 360 9.7 19.3 0.00 0.00 0.00 60 1029.2
20260506013046 18 360 6.4 17.7 0.00 0.00 0.00 61 1029.3
20260506012545 18 360 8.0 19.3 0.00 0.00 0.00 62 1029.4
20260506012043 17 360 9.7 19.3 0.00 0.00 0.00 62 1029.3
20260506011553 17 360 12.9 19.3 0.00 0.00 0.00 63 1029.4
20260506011043 17 360 11.3 17.7 0.00 0.00 0.00 64 1029.3
20260506010543 18 360 8.0 17.7 0.00 0.00 0.00 63 1029.5
20260506010056 18 360 8.0 19.3 0.00 0.00 0.00 65 1029.4
20260506005543 17 360 8.0 19.3 0.00 0.00 0.00 67 1029.3
20260506005040 17 360 8.0 19.3 0.00 0.00 0.00 67 1029.5
20260506004547 17 360 11.3 19.3 0.00 0.00 0.00 67 1029.3
20260506004040 17 360 12.9 20.9 0.00 0.00 0.00 68 1029.4
20260506003540 17 360 11.3 20.9 0.00 0.00 0.00 68 1029.4
20260506003046 16 360 8.0 19.3 0.00 0.00 0.00 69 1029.4
20260506002539 16 360 11.3 20.9 0.00 0.00 0.00 69 1029.4
20260506002040 16 360 9.7 20.9 0.00 0.00 0.00 70 1029.3
20260506001555 16 360 9.7 20.9 0.00 0.00 0.00 70 1029.1
20260506001043 16 360 8.0 19.3 0.00 0.00 0.00 70 1029.1
20260506000543 16 360 8.0 19.3 0.00 0.00 0.00 71 1029.1
20260506000049 16 360 9.7 20.9 0.00 0.00 0.00 72 1029.1
20260505235543 16 360 9.7 20.9 0.00 0.00 0.00 72 1029.0
20260505235043 15 360 11.3 20.9 0.00 0.00 0.00 73 1029.0
20260505234607 15 360 9.7 17.7 0.00 0.00 0.00 73 1028.9
20260505234045 15 360 11.3 17.7 0.00 0.00 0.00 73 1028.9
20260505233540 15 360 11.3 16.1 0.00 0.00 0.00 72 1028.8
20260505233049 15 360 8.0 16.1 0.00 0.00 0.00 72 1028.8
20260505232540 15 360 9.7 16.1 0.00 0.00 0.00 72 1028.8
20260505232043 15 360 8.0 16.1 0.00 0.00 0.00 72 1028.7
20260505231547 15 360 9.7 14.5 0.00 0.00 0.00 72 1028.6
20260505231047 15 360 6.4 14.5 0.00 0.00 0.00 72 1028.6
20260505230543 15 360 8.0 14.5 0.00 0.00 0.00 72 1028.4
20260505230052 15 360 6.4 14.5 0.00 0.00 0.00 72 1028.4
20260505225543 15 360 6.4 12.9 0.00 0.00 0.00 72 1028.1
20260505225043 15 360 6.4 12.9 0.00 0.00 0.00 72 1028.2
20260505224549 15 360 6.4 12.9 0.00 0.00 0.00 72 1028.1
20260505224042 15 360 6.4 12.9 0.00 0.00 0.00 72 1028.1
20260505223544 15 360 4.8 12.9 0.00 0.00 0.00 73 1028.0
20260505223104 15 360 3.2 8.0 0.00 0.00 0.00 73 1028.0
20260505222542 15 360 4.8 9.7 0.00 0.00 0.00 73 1027.9
20260505222043 15 360 4.8 9.7 0.00 0.00 0.00 73 1027.8
20260505221550 15 360 4.8 9.7 0.00 0.00 0.00 73 1027.8
20260505221042 15 360 3.2 9.7 0.00 0.00 0.00 73 1027.8
20260505220543 15 360 4.8 9.7 0.00 0.00 0.00 73 1027.8
20260505220055 15 360 3.2 9.7 0.00 0.00 0.00 72 1027.6
20260505215543 15 360 4.8 9.7 0.00 0.00 0.00 72 1027.6
20260505215043 15 360 4.8 9.7 0.00 0.00 0.00 72 1027.6
20260505214557 15 360 4.8 9.7 0.00 0.00 0.00 72 1027.5
20260505214043 15 360 3.2 8.0 0.00 0.00 0.00 72 1027.5
20260505213540 15 360 4.8 9.7 0.00 0.00 0.00 72 1027.4
20260505213054 15 360 3.2 9.7 0.00 0.00 0.00 72 1027.3
20260505212542 15 360 4.8 9.7 0.00 0.00 0.00 72 1027.3
20260505212043 15 360 3.2 8.0 0.00 0.00 0.00 71 1027.1
20260505211605 15 360 3.2 8.0 0.00 0.00 0.00 71 1027.1
20260505211041 15 360 3.2 9.7 0.00 0.00 0.00 71 1027.1
20260505210543 15 360 4.8 9.7 0.00 0.00 0.00 71 1027.1
20260505210054 15 360 3.2 9.7 0.00 0.00 0.00 71 1027.1
20260505205543 15 360 4.8 12.9 0.00 0.00 0.00 71 1027.1
20260505205045 15 360 4.8 12.9 0.00 0.00 0.00 71 1027.0
20260505204552 15 360 4.8 6.4 0.00 0.00 0.00 71 1026.9
20260505204043 15 360 3.2 8.0 0.00 0.00 0.00 71 1026.9
20260505203543 15 360 3.2 8.0 0.00 0.00 0.00 70 1026.9
20260505203113 15 360 4.8 8.0 0.00 0.00 0.00 70 1026.9
20260505202542 14 360 3.2 8.0 0.00 0.00 0.00 70 1026.9
20260505202043 14 360 3.2 8.0 0.00 0.00 0.00 69 1026.9
20260505201555 14 360 3.2 6.4 0.00 0.00 0.00 68 1026.8
20260505201043 14 360 1.6 8.0 0.00 0.00 0.00 68 1026.7
20260505200543 15 360 1.6 8.0 0.00 0.00 0.00 67 1026.7
20260505200054 15 360 1.6 8.0 0.00 0.00 0.00 67 1026.7
20260505195540 15 360 3.2 8.0 0.00 0.00 0.00 67 1026.7
20260505195039 15 360 3.2 8.0 0.00 0.00 0.00 67 1026.7
20260505194548 15 360 3.2 8.0 0.00 0.00 0.00 67 1026.7
20260505194043 15 360 3.2 8.0 0.00 0.00 0.00 66 1026.7
20260505193542 15 360 3.2 8.0 0.00 0.00 0.00 66 1026.7
20260505193047 15 360 4.8 8.0 0.00 0.00 0.00 66 1026.7
20260505192545 15 360 3.2 8.0 0.00 0.00 0.00 65 1026.7
20260505192043 15 360 3.2 6.4 0.00 0.00 0.00 64 1026.7
20260505191551 15 360 3.2 6.4 0.00 0.00 0.00 65 1026.7
20260505191042 15 360 3.2 9.7 0.00 0.00 0.00 64 1026.7
20260505190543 15 360 3.2 9.7 0.00 0.00 0.00 64 1026.7
20260505190051 15 360 4.8 9.7 0.00 0.00 0.00 64 1026.6
20260505185543 15 360 4.8 9.7 0.00 0.00 0.00 63 1026.6
20260505185040 15 360 3.2 8.0 0.00 0.00 0.00 63 1026.6
20260505184551 15 360 3.2 8.0 0.00 0.00 0.00 62 1026.5
20260505184043 15 360 3.2 8.0 0.00 0.00 0.00 62 1026.5
20260505183540 15 360 3.2 8.0 0.00 0.00 0.00 61 1026.6
20260505183049 15 360 3.2 8.0 0.00 0.00 0.00 61 1026.4
20260505182546 15 360 3.2 8.0 0.00 0.00 0.00 60 1026.4
20260505182042 15 360 3.2 8.0 0.00 0.00 0.00 59 1026.5
20260505181550 15 360 3.2 8.0 0.00 0.00 0.00 59 1026.4
20260505181046 15 360 3.2 8.0 0.00 0.00 0.00 58 1026.5
20260505180548 15 360 3.2 8.0 0.00 0.00 0.00 58 1026.6
20260505180057 15 360 3.2 8.0 0.00 0.00 0.00 57 1026.6
20260505175543 15 360 4.8 8.0 0.00 0.00 0.00 57 1026.5
20260505175043 15 360 0.0 4.8 0.00 0.00 0.00 57 1026.6
20260505174548 15 0 0.0 4.8 0.00 0.00 0.00 55 1026.7
20260505174043 15 0 1.6 6.4 0.00 0.00 0.00 54 1026.7
20260505173542 15 360 3.2 6.4 0.00 0.00 0.00 54 1026.7
20260505173049 15 360 1.6 8.0 0.00 0.00 0.00 54 1026.6
20260505172539 15 360 3.2 8.0 0.00 0.00 0.00 54 1026.6
20260505172043 15 360 4.8 8.0 0.00 0.00 0.00 53 1026.5
20260505171549 15 360 3.2 6.4 0.00 0.00 0.00 53 1026.5
20260505171039 15 360 3.2 6.4 0.00 0.00 0.00 53 1026.4
20260505170541 15 360 3.2 6.4 0.00 0.00 0.00 53 1026.5
20260505170051 15 360 3.2 8.0 0.00 0.00 0.00 53 1026.5
20260505165545 15 360 3.2 8.0 0.00 0.00 0.00 53 1026.6
20260505165043 15 360 3.2 9.7 0.00 0.00 0.00 53 1026.6
20260505164553 15 360 4.8 9.7 0.00 0.00 0.00 54 1026.6
20260505164045 15 360 3.2 8.0 0.00 0.00 0.00 54 1026.6
20260505163545 15 360 3.2 8.0 0.00 0.00 0.00 54 1026.6
20260505163153 15 360 1.6 6.4 0.00 0.00 0.00 54 1026.4
20260505163049 15 360 1.6 6.4 0.00 0.00 0.00 54 1026.4
20260505162546 15 0 0.0 0.0 0.00 0.00 0.00 54 1026.4
20260505162043 15 0 0.0 0.0 0.00 0.00 0.00 54 1026.4
20260505161601 15 0 0.0 3.2 0.00 0.00 0.00 53 1026.4
20260505161043 15 0 0.0 6.4 0.00 0.00 0.00 53 1026.4
20260505160546 15 360 1.6 6.4 0.00 0.00 0.00 53 1026.3
20260505153053 16 360 0.0 3.2 0.00 0.00 0.00 52 1026.5
20260505152543 16 360 1.6 3.2 0.00 0.00 0.00 51 1026.6
20260505152042 16 360 1.6 3.2 0.00 0.00 0.00 51 1026.5
20260505151551 16 360 1.6 4.8 0.00 0.00 0.00 51 1026.4
20260505151043 16 360 1.6 4.8 0.00 0.00 0.00 51 1026.5
20260505150543 16 0 0.0 0.0 0.00 0.00 0.00 51 1026.5
20260505140542 17 360 3.2 12.9 0.00 0.00 0.00 47 1026.7
20260505140113 17 360 4.8 12.9 0.00 0.00 0.00 49 1026.7
20260505130103 17 360 4.8 9.7 0.00 0.00 0.00 53 1026.6
20260505124608 17 360 3.2 8.0 0.00 0.00 0.00 53 1026.6
20260505124041 17 360 4.8 9.7 0.00 0.00 0.00 53 1026.6
20260505123541 17 360 3.2 9.7 0.00 0.00 0.00 53 1026.4
20260505123108 17 360 4.8 9.7 0.00 0.00 0.00 53 1026.4
20260505122542 17 360 3.2 9.7 0.00 0.00 0.00 53 1026.4